COSMOS 1275 DEB, 12661

Orbit data source: Space-Track

COSMOS 1275 DEB, 12661 is space debris in LEO originally from a launch on Thu, 04 Jun 1981 UTC launched from the Plesetsk Missile And Space Complex (PKMTR). Debris objects in space refer to the collection of defunct objects orbiting the Earth. Examples of debris include non-operational satellites, rocket bodies, and fragments generated from explosions, collisions, or faulty payload assembly.

Loading next visibility...
Identifier
12661, 1981-053R
Orbit
LEO
Country
Flag of CISCIS
Related business
Manufacturer
Unknown
Mission
Spacecraft
Bus & Motor
Unknown
Mass
Unknown
Launch date (UTC)
1981-06-04 (45 years ago)
Launch vehicle
Unknown
Launch site
Plesetsk Missile And Space Complex (PKMTR)
Object type
Payload
Rocket body
Debris
Shape & HBR
Unknown shape, 0.1 m
Radar Cross Section
Small (<0.1 m²)

Expand to show TLE details & history
Last TLE update: 6 hours ago

TLE from 7 hours ago
0 COSMOS 1275 DEB
1 12661U 81053R   26034.65915716  .00000885  00000-0  91184-3 0  9995
2 12661  82.8017   5.9057 0117087 220.2189 263.6465 13.72122188211694
Epoch: 2026-02-03T15:49Z
TLE epoch observation values (Epoch: 2026-02-03T15:49:11.178Z)
Latitude
56.86066°
Longitude
163.67634°
Altitude
1,012.024 km
Speed
7.346 km/s
True Right ascension
11h 39m 14s
True Declination
56° 42' 30"
Sunlit
Object was in full shadow at epoch
Visualization orbit readout
Latitude
Unknown
Longitude
Unknown
Altitude
Unknown
Speed
Unknown
Apparent Right ascension
Unknown
Apparent Declination
Unknown
Sunlit
N/A
Visualization observer readout
Local Sidereal Time
00:15:07
Azimuth
Unknown
Elevation
Unknown
Doppler factor
Unknown
Orbital elements
Apogee altitude
1,075.381 km
Perigee altitude
902.859 km
Semi-major axis
7,367.257 km
Eccentricity
0.01171
Inclination
82.8017°
RAAN
5.9057°
Arg. of periapsis
220.2189°
True anomaly
262.3153°
Mean anomaly
263.6465°
Eccentric anomaly
262.98067°
Mean motion
3.43229 °/min
Orbital period
104.89 mins
BSTAR
0.00091184
Loading maneuver chart data...
Computing Atmospheric mass density...
Loading historical data...
Loading historical data...
Loading historical data...
Loading historical data...
Loading historical data...
Loading historical data...
Loading historical data...

Documentation

Showing up to 5 results
|